This demonstration page uses our WeatherBlox Daily Observations layout. Learn more.

Left ArrowRight Arrow

39.08367, -84.50855

Hourly Observations for March 3, 2015

Temp ( °F °C ) Dew Point ( °F °C ) Humidity (%) Winds ( mph kmh ) Pressure ( in mb ) Visibility ( mi km ) Precip ( " mm )
12:53 am 00:53 Clear 26 -3.3 15 -9.4 63 63 NE 6 9 30.32 1027 10 16.0934 N/A
1:53 am 01:53 Clear 26 -3.3 15 -9.4 63 63 N 3 6 30.31 1027 10 16.0934 N/A
2:53 am 02:53 Clear 26 -3.3 16 -8.9 66 66 NNE 5 7 30.3 1026 10 16.0934 N/A
3:53 am 03:53 Clear 26 -3.3 17 -8.3 69 69 N 3 6 30.26 1025 10 16.0934 N/A
4:53 am 04:53 Clear 27 -2.8 18 -7.8 69 69 NNE 3 6 30.23 1024 10 16.0934 N/A
5:53 am 05:53 Cloudy 27 -2.8 19 -7.2 72 72 NE 5 7 30.17 1022 10 16.0934 N/A
6:53 am 06:53 Mostly Cloudy 29 -1.7 19 -7.2 66 66 N N/A 30.12 1020 10 16.0934 N/A
7:53 am 07:53 Cloudy 31 -0.6 21 -6.1 67 67 N N/A 30.13 1020 10 16.0934 N/A
8:53 am 08:53 Cloudy 32 undefined 21 -6.1 64 64 N N/A 30.12 1020 10 16.0934 N/A
9:53 am 09:53 Cloudy with Mist and Fog 32 undefined 24 -4.4 73 73 ESE 3 6 30.06 1018 8 12.87472 N/A
10:50 am 10:50 Cloudy with Rain 34 1 27 -3 75 75 S 6 9 30 1016 3 4.82802 N/A
10:53 am 10:53 Cloudy with Light Rain 33 0.6 28 -2.2 82 82 S 5 7 30.02 1017 3 4.82802 N/A
11:53 am 11:53 Cloudy with Light Rain 33 0.6 32 undefined 96 96 SSW 6 9 29.96 1014 3 4.82802 N/A
12:42 pm 12:42 Cloudy with Light Rain 35 1.7 34 1.1 96 96 SSW 7 11 29.94 1014 3 4.82802 N/A
12:53 pm 12:53 Cloudy with Light Rain 35 1.7 34 1.1 96 96 SSW 8 13 29.91 1013 4 6.43736 N/A
1:53 pm 13:53 Cloudy with Light Rain 38 3.3 37 2.8 97 97 SW 7 11 29.85 1011 3 4.82802 N/A
2:36 pm 14:36 Cloudy with Rain 41 5 41 5 100 100 VRB 3 6 29.85 1011 2 3.21868 N/A
2:53 pm 14:53 Cloudy with Heavy Rain 41 5 41 5 100 100 WSW 3 6 29.81 1010 1 1.60934 N/A
3:00 pm 15:00 Cloudy with Heavy Rain 42 5.6 42 5.6 100 100 WSW 5 7 29.83 1010 0.75 1.207005 N/A
3:21 pm 15:21 Cloudy with Rain 42 5.6 42 5.6 100 100 SW 5 7 29.83 1010 1.25 2.011675 N/A
3:53 pm 15:53 Cloudy with Rain 44 6.7 44 6.7 100 100 VRB 5 7 29.79 1009 1 1.60934 N/A
4:06 pm 16:06 Cloudy with Rain 45 7 45 7 100 100 VRB 5 7 29.8 1009 2.5 4.02335 N/A
4:16 pm 16:16 Cloudy with Heavy Rain 45 7 45 7 100 100 VRB 5 7 29.8 1009 0.75 1.207005 N/A
4:24 pm 16:24 Cloudy with Light Rain 45 7 45 7 100 100 VRB 5 7 29.8 1009 1 1.60934 N/A
4:49 pm 16:49 Cloudy with Rain 46 8 46 8 100 100 VRB 5 7 29.8 1009 1.25 2.011675 N/A
4:53 pm 16:53 Cloudy with Heavy Rain 47 8.3 47 8.3 100 100 VRB 5 7 29.79 1009 1 1.60934 N/A
5:24 pm 17:24 Cloudy with Light Rain 46 7.8 46 7.8 100 100 SSW 6 9 29.8 1009 3 4.82802 N/A
5:53 pm 17:53 Cloudy 45 7.2 45 7.2 100 100 SW 9 15 29.79 1009 7 11.26538 N/A
6:46 pm 18:46 Cloudy with Light Rain 46 8 46 8 100 100 WSW 8 13 29.83 1010 5 8.0467 N/A
6:53 pm 18:53 Cloudy with Light Rain 48 8.9 48 8.9 100 100 WSW 14 22 29.81 1009 5 8.0467 N/A
7:53 pm 19:53 Cloudy with Light Rain 46 7.8 46 7.8 100 100 W 14 22 29.84 1010 8 12.87472 0.07 1.778
8:53 pm 20:53 Cloudy with Light Rain 45 7.2 44 6.7 97 97 WSW 9 15 29.85 1011 5 8.0467 0.06 1.524
9:53 pm 21:53 Cloudy with Light Rain 44 6.7 44 6.7 100 100 WSW 6 9 29.86 1011 7 11.26538 0.05 1.27
10:53 pm 22:53 Cloudy with Light Rain 43 6.1 42 5.6 97 97 WNW 8 13 29.88 1012 8 12.87472 0.03 0.762
11:10 pm 23:10 Cloudy with Rain 43 6 43 6 100 100 VRB 7 11 29.91 1013 5 8.0467 N/A
11:19 pm 23:19 Cloudy with Rain 43 6.1 42 5.6 97 97 NW 7 11 29.91 1013 5 8.0467 0.04 1.016
11:45 pm 23:45 Cloudy with Rain 42 5.6 42 5.6 100 100 WNW 8 13 29.91 1013 5 8.0467 0.09 2.286
11:53 pm 23:53 Cloudy with Rain 42 5.6 41 5 96 96 VRB 5 7 29.88 1012 5 8.0467 0.1 2.54

Powered by AerisWeather